Location: Newark
(40.8000°N, 14.5000°E)
Time: 19:11:39
(UTC+00:00)

OTV 5 (USA 277) - Visible Passes

Search period start: 25 August 2019 00:00
Search period end: 04 September 2019 00:00
Orbit: 305 x 329 km, 54.5° (Epoch: 20 August)

Date Brightness Start Highest point End Pass type
(mag) Time Alt. Az. Time Alt. Az. Time Alt. Az.
25 Aug ? 18:09:53 10° SSW 18:12:23 33° SE 18:14:52 10° ENE visible
25 Aug ? 19:44:46 10° WNW 19:46:46 18° NNW 19:48:20 12° N visible
26 Aug ? 18:24:10 10° SW 18:26:53 73° NW 18:29:34 10° NE visible
26 Aug ? 20:01:04 10° NW 20:01:37 10° NNW 20:02:10 10° N visible
27 Aug ? 18:39:08 10° W 18:41:30 26° NW 18:43:52 10° NNE visible
28 Aug ? 18:54:46 10° WNW 18:56:17 14° NNW 18:57:47 10° N visible
31 Aug ? 18:05:10 10° NW 18:05:50 11° NNW 18:06:29 10° N visible
